Location: Street
(51.1247°N, 2.7429°W)
Time: 17:52:38
(UTC+00:00)

N. Korean satellite - Pass Details

Date: 31 October 2020
Orbit: 453 x 503 km, 97.2° (Epoch: 04 December)

Event Time Altitude Azimuth Distance (km) Brightness Sun altitude
Rises 17:24:47 0° 191° (S) 2,529 10.6 -6.6°
Reaches altitude 10° 17:27:02 10° 203° (SSW) 1,645 9.8 -7.0°
Maximum altitude 17:30:09 28° 264° (W) 907 9.0 -7.4°
Drops below altitude 10° 17:33:14 10° 326° (NW) 1,634 9.5 -7.9°
Sets 17:35:28 0° 338° (NNW) 2,507 10.3 -8.2°
